Theta_e
292 293 294 295 298 299 301 303 311 314 318 323 328 333 335 334 334 334 335 334 335 335 334 333 333 332 331 329 327 332 327 330 326 329 330 328 326 325 324 323 321 319 309
291 292 292 294 295 296 297 300 304 309 313 317 323 327 331 333 334 334 334 335 333 335 334 334 333 332 332 330 327 329 327 329 328 328 330 325 324 324 324 324 323 321 315
290 291 292 292 293 294 295 296 299 304 309 313 319 324 329 333 334 333 333 333 334 335 334 333 332 331 331 332 329 327 329 329 327 328 328 325 325 324 324 323 324 323 322
289 290 291 291 292 292 293 295 297 301 306 311 315 318 324 330 331 334 333 333 332 333 334 334 333 330 330 327 328 328 329 330 326 329 329 327 327 327 324 324 323 324 324
289 289 290 290 291 292 292 293 295 298 302 307 310 314 319 325 331 333 333 334 333 333 333 334 333 332 327 323 325 327 330 330 327 329 329 328 328 328 326 324 323 324 325
290 290 290 290 290 291 292 292 293 295 299 303 307 310 315 321 328 331 333 330 333 332 333 334 332 330 324 319 319 323 325 328 328 327 327 327 328 328 326 326 324 324 324
290 290 290 289 290 290 291 291 292 294 297 299 303 306 311 317 321 327 330 330 331 332 332 333 332 329 324 324 324 321 323 326 327 328 326 326 327 328 328 328 326 325 325
289 290 290 290 289 289 290 290 291 292 296 298 300 303 309 311 316 323 327 329 330 331 330 329 333 333 328 326 322 323 326 326 326 326 328 327 327 328 328 325 327 326 325
289 289 289 290 290 289 289 289 290 292 293 296 298 300 304 308 313 319 324 327 329 331 329 331 330 332 331 329 326 324 324 324 321 324 326 323 325 325 325 324 325 328 327
288 288 289 289 289 289 289 289 289 291 292 294 296 297 300 304 309 315 319 324 327 329 331 329 330 330 332 330 328 326 324 325 325 320 319 322 323 321 324 326 327 328 328
288 288 288 288 288 289 289 289 289 290 292 293 294 296 298 301 305 310 315 321 323 327 327 328 328 329 330 331 329 327 326 324 325 322 320 322 322 322 322 323 328 329 328
288 288 288 288 287 288 289 289 289 289 290 291 292 294 297 298 302 304 309 312 319 324 325 326 323 325 329 328 330 329 326 324 323 324 318 316 319 323 321 326 328 329 328
287 287 287 287 287 287 288 289 289 289 289 290 291 293 294 297 298 300 304 311 316 320 325 326 327 328 328 327 327 328 328 327 326 324 321 316 320 326 327 327 328 327 319
287 287 287 287 286 287 287 288 288 289 289 289 289 291 294 294 297 298 300 305 311 317 322 323 322 324 324 321 323 327 329 328 328 328 325 323 321 320 322 327 327 327 328
286 286 287 286 286 286 287 288 288 289 289 289 289 290 293 294 295 297 297 301 305 312 317 321 320 321 322 322 318 321 326 328 327 327 326 326 325 324 321 325 327 327 322
286 286 286 286 286 286 287 288 288 288 289 289 289 289 291 294 294 296 295 298 303 307 312 316 319 319 317 319 321 321 326 327 327 327 328 327 327 327 327 326 327 325 324
286 285 285 285 285 286 286 287 287 288 289 289 289 288 289 293 294 295 294 296 300 304 307 312 315 319 321 322 324 322 325 326 328 328 328 327 327 327 327 327 325 325 323
286 285 285 285 285 285 286 286 286 287 288 288 288 288 289 291 294 294 294 295 297 300 304 306 309 314 315 320 322 322 318 320 326 327 323 326 327 327 327 328 325 325 323
285 285 285 285 285 285 285 285 286 285 286 288 288 288 288 289 294 294 294 294 295 298 302 304 306 309 312 314 320 323 323 324 324 321 324 320 326 326 326 327 327 328 326
285 285 285 284 284 284 284 284 285 285 286 287 287 288 288 289 291 293 293 294 294 294 297 300 302 305 308 310 316 322 325 326 325 324 324 325 324 319 328 326 329 328 329
285 285 284 284 284 284 284 284 285 285 286 286 287 287 288 288 290 293 293 294 294 294 294 295 298 301 302 305 309 315 319 321 322 324 324 325 320 321 319 323 325 327 328
284 284 284 283 284 284 284 284 285 285 286 286 286 287 287 288 289 291 293 293 294 294 294 294 294 296 298 301 304 306 309 313 320 321 324 325 325 323 324 322 323 325 324
284 284 283 283 283 284 284 284 285 286 286 286 286 286 287 288 289 290 291 293 292 293 293 294 294 294 295 296 299 304 306 309 313 317 321 324 325 325 325 325 324 324 324
284 283 283 283 283 283 284 284 284 284 285 285 286 286 286 287 288 289 290 290 291 291 293 293 293 293 294 294 295 297 302 306 309 312 316 320 324 324 325 326 326 325 324
283 283 283 283 283 282 283 283 283 283 284 285 285 285 286 286 287 288 288 289 289 289 290 291 293 293 293 293 294 295 295 299 301 306 312 315 320 321 323 323 325 324 326
282 282 282 282 281 281 281 282 283 283 282 283 284 286 286 286 287 287 288 288 288 288 288 288 289 292 293 293 294 294 295 295 296 301 302 305 311 312 314 318 320 321 323
Wind_Speed
28 27 28 27 26 25 24 24 20 16 15 13 18 18 24 30 33 30 36 25 36 39 37 34 39 45 41 46 51 42 44 42 33 30 26 21 17 15 11 11 10 10 12
30 31 31 29 27 27 27 25 22 19 17 12 10 15 21 28 29 31 30 30 31 41 37 40 37 43 43 43 52 44 42 46 43 37 32 22 19 19 17 15 14 12 13
30 30 31 32 29 29 29 27 26 22 18 16 13 14 13 19 24 29 31 32 30 33 34 34 31 35 35 39 50 52 51 52 45 38 28 15 10 22 21 20 18 18 16
28 30 31 31 33 31 28 27 26 23 19 17 14 10 11 16 19 27 32 34 30 35 43 43 30 32 35 33 43 47 42 57 49 42 37 28 21 13 11 24 25 23 22
27 29 30 29 30 31 31 28 27 23 20 17 15 12 9 12 20 19 29 33 29 36 35 40 35 34 36 32 39 50 47 47 46 48 39 28 24 17 12 10 21 30 27
27 28 29 30 31 31 33 32 31 26 22 17 16 12 9 12 14 18 23 30 33 30 41 39 47 35 35 37 33 33 38 34 42 40 43 39 33 28 21 14 13 14 22
28 31 33 33 33 34 34 35 33 30 26 21 17 14 11 10 14 11 20 20 33 31 33 45 41 40 41 40 35 37 40 44 42 44 43 41 37 30 24 21 13 13 13
27 29 30 30 33 32 34 35 35 33 27 25 19 16 12 11 13 16 14 19 23 33 31 31 41 40 44 46 44 42 43 45 45 49 47 42 41 38 33 28 18 16 16
27 28 29 28 30 32 32 36 35 35 32 26 23 18 14 12 11 14 22 23 22 28 33 33 37 49 50 48 47 43 46 49 51 53 49 44 43 40 38 37 34 20 17
26 29 29 30 30 30 29 33 35 34 34 29 23 23 18 14 11 11 15 23 27 22 29 29 33 38 47 53 52 50 48 49 49 51 49 47 44 42 39 39 39 37 25
25 28 29 30 30 28 28 29 32 34 36 34 28 24 21 15 12 11 15 18 25 21 24 30 31 35 49 50 51 50 49 48 45 45 48 45 42 42 40 40 41 42 36
23 27 27 30 31 29 28 29 30 31 33 32 31 30 25 17 13 15 12 13 17 23 30 32 39 37 44 46 52 51 50 51 49 50 51 53 51 53 50 47 46 42 40
24 27 28 30 31 30 28 29 29 29 31 33 30 32 32 25 18 18 17 15 13 20 27 24 25 26 41 45 45 42 51 53 54 55 57 57 51 49 49 49 43 43 39
25 27 28 32 32 30 29 28 29 29 29 32 32 31 34 32 27 21 20 15 15 15 26 28 31 31 35 26 29 44 44 50 51 54 55 54 54 57 52 45 38 48 41
28 29 28 33 33 31 29 28 28 27 27 30 33 31 33 32 33 26 24 18 14 14 19 26 26 25 42 45 35 28 49 46 52 51 52 49 50 51 50 53 46 46 43
26 28 30 30 32 30 29 27 27 28 27 29 32 31 33 34 32 32 30 24 15 13 14 19 27 29 28 26 26 24 43 51 46 46 43 46 47 48 47 44 43 46 51
24 27 28 29 30 29 27 27 28 27 27 28 30 31 32 33 32 33 32 30 20 13 12 12 15 26 26 31 26 23 30 47 44 41 43 40 48 51 46 50 44 42 43
23 27 27 30 29 27 26 26 26 26 26 26 28 30 32 32 32 30 32 31 26 18 13 11 12 13 16 25 33 31 30 30 40 37 28 40 50 50 53 46 50 49 54
21 24 25 29 27 25 26 26 23 24 24 25 26 28 28 29 30 28 30 31 29 24 18 13 10 9 12 20 28 27 44 42 39 33 35 30 36 40 43 46 48 47 52
21 24 26 28 24 24 24 23 22 22 22 23 25 25 25 26 26 28 27 28 28 29 25 18 12 8 9 12 20 30 27 29 38 33 41 35 32 33 46 41 56 51 48
21 23 27 25 23 22 22 21 21 21 22 21 22 23 23 24 24 24 25 28 29 29 30 28 24 19 14 12 11 17 22 21 33 40 35 40 38 31 25 43 45 44 45
21 24 24 23 21 19 19 20 20 22 22 22 22 23 22 23 24 24 25 28 28 29 31 32 32 32 27 21 14 9 8 17 21 31 36 38 40 42 41 44 46 43 40
21 21 21 21 19 18 18 19 22 22 22 21 22 23 22 22 23 24 23 24 31 28 30 31 35 36 37 35 27 16 12 9 17 25 30 34 39 39 38 36 47 43 39
20 19 18 18 19 18 17 17 19 21 22 21 21 21 22 21 20 22 23 22 23 28 30 31 32 33 36 38 39 34 25 16 13 16 24 34 36 38 40 36 41 47 49
19 17 16 15 16 16 17 19 21 20 22 23 22 20 19 20 20 17 18 21 21 22 27 29 28 29 32 33 32 34 35 26 18 14 16 21 28 33 33 31 35 41 44
17 16 16 15 15 17 19 21 21 22 22 21 20 20 19 18 18 17 17 15 16 19 22 23 24 26 25 24 29 31 30 32 27 19 16 12 11 16 22 32 38 40 46
Wind_Direction
356 357 355 354 350 349 350 354 350 343 329 281 253 244 242 246 247 248 242 248 238 235 235 225 205 219 204 207 204 209 201 199 197 196 191 187 191 182 194 202 204 203 198
3 1 1 359 357 352 350 351 352 351 339 323 291 270 252 241 252 248 249 240 243 241 232 231 222 223 225 217 211 203 204 200 198 193 189 179 194 201 201 215 217 214 206
4 4 3 3 358 356 354 352 351 350 346 333 308 265 265 241 257 249 246 249 242 231 236 246 215 226 225 224 221 214 201 196 194 204 195 167 188 203 206 217 226 227 223
7 8 7 6 4 358 355 354 351 350 351 339 328 316 266 247 241 247 253 249 242 251 240 227 241 219 219 216 218 202 191 194 191 200 202 205 202 183 201 220 226 230 231
5 7 9 7 5 4 1 359 355 352 351 349 340 323 293 248 232 239 251 241 252 243 243 235 223 224 220 216 213 204 207 201 199 200 198 203 207 204 200 205 227 230 234
5 8 10 10 9 7 6 3 1 0 352 352 346 333 317 268 236 225 235 254 246 240 232 243 241 212 205 204 195 200 220 218 206 208 214 213 213 212 220 224 243 240 240
5 7 8 8 7 8 7 6 2 2 2 351 349 344 323 305 261 228 226 237 245 242 237 229 232 205 210 215 215 211 213 220 216 213 219 224 227 230 239 246 247 251 255
1 2 1 4 6 5 6 6 4 2 4 359 348 345 333 323 292 243 222 227 235 250 247 247 236 240 216 220 223 222 218 219 219 221 225 229 235 236 238 250 234 251 259
3 0 359 1 0 1 2 7 4 4 4 3 356 344 335 332 322 267 237 234 237 242 257 244 245 234 228 220 222 219 223 225 226 229 229 231 237 241 243 247 250 246 251
360 2 0 359 356 355 358 6 6 4 4 1 1 354 339 332 322 300 259 243 238 234 241 253 248 253 244 231 222 220 223 226 227 228 231 230 232 240 241 244 251 248 244
355 356 356 357 356 355 357 1 3 4 7 10 2 0 350 333 324 325 280 252 239 217 227 256 255 245 241 240 227 221 220 224 227 224 228 230 236 242 245 249 253 242 241
350 354 353 354 355 355 356 356 358 0 4 7 5 6 356 344 329 324 306 290 256 228 225 234 250 264 251 236 237 226 218 225 227 228 230 237 241 242 246 251 251 235 235
346 350 352 352 351 351 351 352 355 357 1 3 3 5 7 358 343 335 324 303 276 239 224 220 219 241 245 256 232 240 239 239 236 235 236 240 240 239 241 247 238 227 223
342 347 349 348 348 348 348 348 350 357 360 0 2 2 8 8 1 348 336 318 293 267 238 234 235 237 252 254 253 246 246 242 244 242 239 240 242 239 242 239 241 227 230
341 348 347 345 346 346 347 348 354 358 1 1 0 359 4 8 7 360 349 333 307 286 257 243 242 242 236 248 273 279 259 245 241 243 244 246 242 239 242 247 245 227 221
338 345 344 344 343 345 346 347 353 360 2 3 2 358 2 8 8 6 2 347 329 302 283 253 241 235 236 248 248 272 236 248 233 235 237 242 249 247 245 242 246 252 226
336 341 340 340 340 342 344 346 350 354 358 2 3 0 359 6 8 10 11 2 357 333 304 285 260 246 251 245 251 246 242 253 238 241 242 246 247 249 254 249 247 247 225
334 338 337 337 338 337 339 339 343 350 353 354 359 2 2 4 8 10 15 11 12 5 344 312 289 265 259 241 238 233 246 244 240 244 254 261 248 246 247 245 238 240 235
331 332 334 334 334 337 336 338 339 343 349 354 355 359 1 3 8 13 12 18 23 23 19 360 332 306 269 265 252 239 240 247 237 253 249 261 243 238 247 242 248 245 242
331 332 333 333 335 336 337 339 341 342 348 353 353 356 359 4 5 10 14 20 26 28 34 30 19 344 316 296 262 251 247 241 248 250 239 249 241 266 238 246 245 245 250
332 334 333 333 335 337 338 341 344 346 348 348 350 354 360 4 7 7 21 18 25 34 35 38 34 29 10 345 307 263 251 249 227 237 245 246 246 238 270 244 240 240 247
335 335 335 336 339 343 346 348 350 348 347 351 352 355 357 4 9 8 20 16 20 28 34 34 36 32 26 16 2 347 292 255 243 227 230 244 251 238 250 251 244 243 246
334 336 338 338 343 349 352 351 357 353 353 351 354 358 360 4 11 13 12 16 18 22 25 29 29 31 28 20 13 356 337 295 265 243 232 226 241 246 250 245 241 248 246
335 336 339 341 343 348 351 351 353 355 357 354 352 357 3 4 10 18 17 16 10 16 19 22 22 23 23 22 17 10 355 334 307 275 256 242 236 241 243 249 240 244 242
335 337 338 341 342 344 346 347 348 348 351 356 356 354 357 2 6 12 22 22 22 21 21 17 18 16 17 18 17 19 15 3 355 325 284 268 250 249 244 238 243 245 242
339 340 339 339 340 339 336 334 334 336 338 341 349 356 360 359 0 360 358 14 18 17 21 25 19 19 16 11 15 18 21 24 25 19 6 342 291 279 262 252 248 251 251